Check out our new BloomSky Weather System.

Active alerts

Houston, TX
  Details for Houston, TX Dense Fog Advisory


Thunder radar  blitzortung!


Rain radar more information rain snow radar


Visit our other weather sites:

Template documentation
and downloads

And another site



Weather Underground History page Text

Daily Summary for May 25, 2017 Units:  Metric    English   Both
« Previous Day
Next Day »
Daily Weekly Monthly Yearly Custom
  High: Low: Average:
Temperature: 32.8 °C 15.5 °C 24.8 °C
Dew Point: 20.6 °C 12.5 °C 16.4 °C
Humidity: 92 % 34 % 63 %
Wind Speed: 24.1 km/h 0 km/h 7.4 km/h
Wind Gust: 32.2 km/h - -
Wind:- - South
Pressure: 1009.4 hPa 1006.7 hPa -
Precipitation: 0 mm    
Historical Graphs
 
 
Tabular Data for May 25, 2017
Time Temperature Dew Point Pressure Wind Wind Speed Wind Gust Humidity Rainfall Rate (Hourly)
00:02 17.6 °C 12.9 °C 1007.3 hPa Calm     74 % 0 mm
00:07 17.6 °C 13.1 °C 1007.3 hPa Calm     75 % 0 mm
00:12 17.5 °C 13 °C 1007.3 hPa Calm     75 % 0 mm
00:17 17.5 °C 13.2 °C 1007.3 hPa Calm     76 % 0 mm
00:22 17.5 °C 13.2 °C 1007.3 hPa Calm     76 % 0 mm
00:27 17.3 °C 13.2 °C 1007.3 hPa Calm     77 % 0 mm
00:32 17.4 °C 13.5 °C 1007.3 hPa Calm     78 % 0 mm
00:37 17.3 °C 13.2 °C 1007.3 hPa Calm     77 % 0 mm
00:42 17.1 °C 13 °C 1007.3 hPa Calm     77 % 0 mm
00:47 17 °C 13.1 °C 1007.3 hPa Calm     78 % 0 mm
00:52 16.9 °C 13 °C 1007.3 hPa Calm     78 % 0 mm
00:57 16.9 °C 13.2 °C 1007.3 hPa Calm     79 % 0 mm
01:02 16.8 °C 13.1 °C 1007.3 hPa Calm     79 % 0 mm
01:03 16.7 °C 13 °C 1007.3 hPa Calm     79 % 0 mm
01:09 16.6 °C 13.1 °C 1007.3 hPa Calm     80 % 0 mm
01:14 16.5 °C 13 °C 1007.3 hPa Calm     80 % 0 mm
01:19 16.5 °C 13.2 °C 1007.3 hPa Calm     81 % 0 mm
01:24 16.6 °C 13.3 °C 1007.3 hPa Calm     81 % 0 mm
01:29 16.5 °C 13 °C 1007.3 hPa Calm     80 % 0 mm
01:34 16.4 °C 12.9 °C 1007.3 hPa Calm     80 % 0 mm
01:39 16.5 °C 13 °C 1007.3 hPa Calm     80 % 0 mm
01:44 16.4 °C 12.9 °C 1007.3 hPa Calm     80 % 0 mm
01:49 16.7 °C 13.2 °C 1007 hPa Calm     80 % 0 mm
01:54 17 °C 13.3 °C 1007 hPa Calm   1.6 km/h 79 % 0 mm
02:00 17.4 °C 13.3 °C 1007 hPa Calm   1.6 km/h 77 % 0 mm
02:05 17.6 °C 13.1 °C 1007 hPa SSW 4.8 km/h 4.8 km/h 75 % 0 mm
02:06 17.6 °C 12.9 °C 1007 hPa South 1.6 km/h 6.4 km/h 74 % 0 mm
02:11 17.9 °C 12.8 °C 1007 hPa ESE 1.6 km/h 6.4 km/h 72 % 0 mm
02:16 18.1 °C 13 °C 1007 hPa Calm   6.4 km/h 72 % 0 mm
02:21 18.2 °C 13.1 °C 1006.7 hPa Calm   6.4 km/h 72 % 0 mm
02:26 18.2 °C 12.9 °C 1006.7 hPa Calm   3.2 km/h 71 % 0 mm
02:31 18.1 °C 12.8 °C 1006.7 hPa Calm   3.2 km/h 71 % 0 mm
02:36 17.9 °C 12.8 °C 1006.7 hPa Calm   1.6 km/h 72 % 0 mm
02:41 17.9 °C 12.8 °C 1006.7 hPa SSE 1.6 km/h 1.6 km/h 72 % 0 mm
02:46 18 °C 12.7 °C 1006.7 hPa Calm   4.8 km/h 71 % 0 mm
02:51 18.1 °C 12.5 °C 1006.7 hPa SSE 1.6 km/h 4.8 km/h 70 % 0 mm
02:56 18.3 °C 12.5 °C 1007 hPa Calm   4.8 km/h 69 % 0 mm
03:01 18.5 °C 12.5 °C 1007 hPa Calm   4.8 km/h 68 % 0 mm
03:06 18.6 °C 12.6 °C 1007 hPa SE 1.6 km/h 4.8 km/h 68 % 0 mm
03:11 18.6 °C 12.6 °C 1007 hPa Calm   3.2 km/h 68 % 0 mm
03:16 18.5 °C 12.7 °C 1007 hPa Calm   3.2 km/h 69 % 0 mm
03:21 18.4 °C 12.6 °C 1007 hPa Calm   3.2 km/h 69 % 0 mm
03:26 18.4 °C 12.6 °C 1007 hPa SE 3.2 km/h 3.2 km/h 69 % 0 mm
03:31 18.4 °C 12.8 °C 1007 hPa Calm   4.8 km/h 70 % 0 mm
03:36 18.5 °C 12.9 °C 1007 hPa Calm   4.8 km/h 70 % 0 mm
03:41 18.4 °C 13 °C 1006.7 hPa Calm   4.8 km/h 71 % 0 mm
03:46 18.4 °C 13 °C 1007 hPa Calm   3.2 km/h 71 % 0 mm
03:51 18.2 °C 13.1 °C 1006.7 hPa Calm   1.6 km/h 72 % 0 mm
03:56 18.1 °C 13 °C 1007 hPa Calm   1.6 km/h 72 % 0 mm
04:02 17.9 °C 13 °C 1006.7 hPa Calm   1.6 km/h 73 % 0 mm
04:07 17.7 °C 13 °C 1006.7 hPa Calm   1.6 km/h 74 % 0 mm
04:12 17.6 °C 13.1 °C 1006.7 hPa Calm     75 % 0 mm
04:17 17.6 °C 13.3 °C 1006.7 hPa Calm     76 % 0 mm
04:22 17.4 °C 13.1 °C 1006.7 hPa Calm     76 % 0 mm
04:27 17.3 °C 13.2 °C 1006.7 hPa Calm     77 % 0 mm
04:32 17.3 °C 13.4 °C 1006.7 hPa Calm     78 % 0 mm
04:37 17.2 °C 13.3 °C 1006.7 hPa Calm     78 % 0 mm
04:42 17 °C 13.3 °C 1007 hPa Calm     79 % 0 mm
04:47 16.8 °C 13.3 °C 1007 hPa Calm     80 % 0 mm
04:52 16.7 °C 13.4 °C 1007 hPa Calm     81 % 0 mm
04:58 16.6 °C 13.5 °C 1007 hPa Calm     82 % 0 mm
05:03 16.5 °C 13.6 °C 1007.3 hPa Calm     83 % 0 mm
05:08 16.4 °C 13.7 °C 1007.3 hPa Calm     84 % 0 mm
05:13 16.5 °C 13.8 °C 1007.3 hPa Calm     84 % 0 mm
05:18 16.4 °C 13.7 °C 1007.3 hPa Calm     84 % 0 mm
05:23 16.3 °C 13.6 °C 1007.3 hPa Calm     84 % 0 mm
05:28 16.2 °C 13.7 °C 1007.3 hPa Calm     85 % 0 mm
05:33 16.1 °C 13.8 °C 1007.3 hPa Calm     86 % 0 mm
05:38 16.1 °C 13.8 °C 1007.3 hPa Calm     86 % 0 mm
05:43 16 °C 13.7 °C 1007.3 hPa Calm     86 % 0 mm
05:48 15.9 °C 13.7 °C 1007.3 hPa Calm     87 % 0 mm
05:53 15.9 °C 13.7 °C 1007.3 hPa Calm     87 % 0 mm
05:58 15.8 °C 13.8 °C 1007.3 hPa Calm     88 % 0 mm
06:03 15.7 °C 13.7 °C 1007.3 hPa Calm     88 % 0 mm
06:08 15.7 °C 13.7 °C 1007.7 hPa Calm     88 % 0 mm
06:13 15.6 °C 13.6 °C 1007.7 hPa Calm     88 % 0 mm
06:18 15.6 °C 13.8 °C 1007.7 hPa Calm     89 % 0 mm
06:23 15.6 °C 13.8 °C 1007.7 hPa Calm     89 % 0 mm
06:28 15.5 °C 13.9 °C 1007.7 hPa Calm     90 % 0 mm
06:33 15.5 °C 13.9 °C 1008 hPa Calm     90 % 0 mm
06:38 15.5 °C 13.9 °C 1008 hPa Calm     90 % 0 mm
06:43 15.6 °C 14.1 °C 1008 hPa Calm     91 % 0 mm
06:48 15.7 °C 14.2 °C 1008.4 hPa Calm     91 % 0 mm
06:53 15.8 °C 14.3 °C 1008.4 hPa Calm     91 % 0 mm
06:58 15.9 °C 14.4 °C 1008.4 hPa Calm     91 % 0 mm
07:03 16.1 °C 14.6 °C 1008.4 hPa Calm     91 % 0 mm
07:08 16.3 °C 15 °C 1008.7 hPa Calm     92 % 0 mm
07:13 16.9 °C 15.6 °C 1008.4 hPa Calm     92 % 0 mm
07:18 17.4 °C 15.9 °C 1008.7 hPa Calm     91 % 0 mm
07:23 18.1 °C 16.6 °C 1008.7 hPa Calm     91 % 0 mm
07:28 18.9 °C 17.4 °C 1008.7 hPa Calm     91 % 0 mm
07:33 19.7 °C 17.8 °C 1008.7 hPa Calm     89 % 0 mm
07:38 20.3 °C 18.1 °C 1008.7 hPa Calm     87 % 0 mm
07:43 20.8 °C 18.2 °C 1008.7 hPa Calm     85 % 0 mm
07:48 21.2 °C 18 °C 1008.7 hPa Calm   1.6 km/h 82 % 0 mm
07:53 21.4 °C 18 °C 1008.7 hPa Calm   1.6 km/h 81 % 0 mm
07:58 21.9 °C 18.3 °C 1008.7 hPa Calm   1.6 km/h 80 % 0 mm
08:03 22.2 °C 18.4 °C 1008.7 hPa Calm   1.6 km/h 79 % 0 mm
08:08 22.5 °C 18.7 °C 1008.7 hPa SSW 1.6 km/h 3.2 km/h 79 % 0 mm
08:10 22.6 °C 18.8 °C 1008.7 hPa Calm   3.2 km/h 79 % 0 mm
08:15 22.9 °C 18.9 °C 1008.7 hPa SW 1.6 km/h 3.2 km/h 78 % 0 mm
08:20 23 °C 18.7 °C 1008.7 hPa South 4.8 km/h 6.4 km/h 77 % 0 mm
08:25 23.2 °C 19.1 °C 1009 hPa SSE 3.2 km/h 9.7 km/h 78 % 0 mm
08:30 23.4 °C 19.1 °C 1009 hPa SSE 6.4 km/h 11.3 km/h 77 % 0 mm
08:35 23.6 °C 19.3 °C 1009 hPa South 3.2 km/h 11.3 km/h 77 % 0 mm
08:40 23.9 °C 19.4 °C 1009 hPa SSW 8 km/h 11.3 km/h 76 % 0 mm
08:45 24.4 °C 19.5 °C 1009 hPa SE 4.8 km/h 11.3 km/h 74 % 0 mm
08:50 24.7 °C 19.3 °C 1009 hPa SSW 11.3 km/h 11.3 km/h 72 % 0 mm
08:55 24.8 °C 19.4 °C 1009 hPa SSW 4.8 km/h 16.1 km/h 72 % 0 mm
09:00 25.2 °C 19.3 °C 1009 hPa SSW 6.4 km/h 19.3 km/h 70 % 0 mm
09:05 25.4 °C 19.3 °C 1009 hPa SW 6.4 km/h 19.3 km/h 69 % 0 mm
09:10 25.6 °C 19 °C 1009.4 hPa SE 17.7 km/h 19.3 km/h 67 % 0 mm
09:15 25.6 °C 18.8 °C 1009.4 hPa SSE 8 km/h 24.1 km/h 66 % 0 mm
09:20 25.6 °C 18.8 °C 1009.4 hPa SSW 16.1 km/h 24.1 km/h 66 % 0 mm
09:25 25.8 °C 19 °C 1009.4 hPa South 6.4 km/h 24.1 km/h 66 % 0 mm
09:30 26 °C 18.9 °C 1009.4 hPa SW 12.9 km/h 22.5 km/h 65 % 0 mm
09:35 26.2 °C 18.6 °C 1009.4 hPa SSW 4.8 km/h 22.5 km/h 63 % 0 mm
09:40 26.3 °C 18.4 °C 1009.4 hPa SSW 8 km/h 22.5 km/h 62 % 0 mm
09:45 26.7 °C 18.6 °C 1009.4 hPa SW 14.5 km/h 27.4 km/h 61 % 0 mm
09:50 26.8 °C 18.4 °C 1009.4 hPa SW 1.6 km/h 27.4 km/h 60 % 0 mm
09:55 27.2 °C 18.2 °C 1009.4 hPa SSE 12.9 km/h 24.1 km/h 58 % 0 mm
10:00 27.3 °C 18 °C 1009.4 hPa SW 8 km/h 22.5 km/h 57 % 0 mm
10:05 27.3 °C 17.8 °C 1009.4 hPa SSW 8 km/h 20.9 km/h 56 % 0 mm
10:10 27.4 °C 17.8 °C 1009.4 hPa SE 14.5 km/h 20.9 km/h 56 % 0 mm
10:15 27.3 °C 17.8 °C 1009.4 hPa SE 14.5 km/h 27.4 km/h 56 % 0 mm
10:20 27.6 °C 18 °C 1009.4 hPa SE 12.9 km/h 27.4 km/h 56 % 0 mm
10:25 27.8 °C 17.9 °C 1009.4 hPa SW 12.9 km/h 27.4 km/h 55 % 0 mm
10:30 27.8 °C 18.5 °C 1009.4 hPa SSW 1.6 km/h 25.7 km/h 57 % 0 mm
10:35 27.9 °C 18.3 °C 1009.4 hPa SSE 17.7 km/h 30.6 km/h 56 % 0 mm
10:40 27.8 °C 18.5 °C 1009.4 hPa WSW 4.8 km/h 30.6 km/h 57 % 0 mm
10:45 28 °C 18.4 °C 1009.4 hPa SSW 12.9 km/h 30.6 km/h 56 % 0 mm
10:50 28.1 °C 17.3 °C 1009.4 hPa SSE 24.1 km/h 32.2 km/h 52 % 0 mm
10:55 28.2 °C 17.7 °C 1009 hPa ESE 19.3 km/h 32.2 km/h 53 % 0 mm
11:00 28.4 °C 18.2 °C 1009.4 hPa SE 11.3 km/h 32.2 km/h 54 % 0 mm
11:05 28.4 °C 17.3 °C 1009.4 hPa SSE 9.7 km/h 29 km/h 51 % 0 mm
11:10 28.7 °C 18.2 °C 1009 hPa SSE 12.9 km/h 29 km/h 53 % 0 mm
11:15 28.7 °C 17.9 °C 1009 hPa SSW 14.5 km/h 27.4 km/h 52 % 0 mm
11:20 28.8 °C 18 °C 1009.4 hPa SSE 12.9 km/h 30.6 km/h 52 % 0 mm
11:25 29 °C 18.5 °C 1009.4 hPa SSW 11.3 km/h 30.6 km/h 53 % 0 mm
11:30 29.1 °C 18.5 °C 1009.4 hPa WSW 8 km/h 30.6 km/h 53 % 0 mm
11:35 29.3 °C 18.4 °C 1009 hPa South 12.9 km/h 24.1 km/h 52 % 0 mm
11:40 29.4 °C 18.5 °C 1009.4 hPa SSW 14.5 km/h 24.1 km/h 52 % 0 mm
11:45 29.5 °C 18.3 °C 1009 hPa SSE 12.9 km/h 24.1 km/h 51 % 0 mm
11:55 29.4 °C 17.9 °C 1009 hPa South 11.3 km/h 27.4 km/h 50 % 0 mm
12:00 29.5 °C 18 °C 1009 hPa ESE 12.9 km/h 29 km/h 50 % 0 mm
12:05 29.7 °C 18.8 °C 1009 hPa SSE 8 km/h 29 km/h 52 % 0 mm
12:10 29.9 °C 19 °C 1009 hPa SSW 22.5 km/h 29 km/h 52 % 0 mm
12:15 29.9 °C 18.3 °C 1009 hPa West 1.6 km/h 30.6 km/h 50 % 0 mm
12:20 30.2 °C 18.3 °C 1008.7 hPa SSW 14.5 km/h 30.6 km/h 49 % 0 mm
12:25 30.4 °C 18.2 °C 1008.7 hPa SSE 14.5 km/h 30.6 km/h 48 % 0 mm
12:30 30.4 °C 18.2 °C 1008.7 hPa SE 12.9 km/h 30.6 km/h 48 % 0 mm
12:35 30.6 °C 19 °C 1008.4 hPa SE 12.9 km/h 25.7 km/h 50 % 0 mm
12:40 30.7 °C 18.1 °C 1008.7 hPa SW 11.3 km/h 25.7 km/h 47 % 0 mm
12:45 30.6 °C 18.3 °C 1008.7 hPa SSW 12.9 km/h 25.7 km/h 48 % 0 mm
12:50 30.6 °C 18 °C 1008.4 hPa South 11.3 km/h 25.7 km/h 47 % 0 mm
12:55 30.6 °C 17.7 °C 1008.7 hPa South 9.7 km/h 29 km/h 46 % 0 mm
13:00 30.8 °C 18.5 °C 1008.4 hPa SSE 9.7 km/h 29 km/h 48 % 0 mm
13:05 31 °C 18 °C 1008.4 hPa ESE 14.5 km/h 30.6 km/h 46 % 0 mm
13:11 30.9 °C 17.9 °C 1008.4 hPa SSE 16.1 km/h 30.6 km/h 46 % 0 mm
13:16 30.9 °C 17.9 °C 1008.4 hPa ESE 11.3 km/h 30.6 km/h 46 % 0 mm
13:21 31.1 °C 18.5 °C 1008.4 hPa SSW 9.7 km/h 32.2 km/h 47 % 0 mm
13:26 31.5 °C 17.8 °C 1008.4 hPa SSE 11.3 km/h 32.2 km/h 44 % 0 mm
13:31 31.4 °C 18.4 °C 1008.4 hPa SSW 16.1 km/h 32.2 km/h 46 % 0 mm
13:36 31.4 °C 18 °C 1008.4 hPa SSW 11.3 km/h 25.7 km/h 45 % 0 mm
13:41 31.6 °C 18.2 °C 1008.4 hPa SE 12.9 km/h 25.7 km/h 45 % 0 mm
13:46 31.7 °C 18.3 °C 1008.4 hPa SW 9.7 km/h 24.1 km/h 45 % 0 mm
13:51 31.8 °C 18.4 °C 1008 hPa South 14.5 km/h 24.1 km/h 45 % 0 mm
13:56 31.8 °C 18.4 °C 1008.4 hPa SSW 12.9 km/h 27.4 km/h 45 % 0 mm
14:01 31.7 °C 18.3 °C 1008 hPa SE 16.1 km/h 27.4 km/h 45 % 0 mm
14:06 31.7 °C 18.7 °C 1008.4 hPa SE 9.7 km/h 27.4 km/h 46 % 0 mm
14:11 31.7 °C 18.3 °C 1008 hPa SSW 16.1 km/h 27.4 km/h 45 % 0 mm
14:16 31.7 °C 17.9 °C 1008 hPa SSE 9.7 km/h 29 km/h 44 % 0 mm
14:21 31.8 °C 17.7 °C 1008 hPa SSW 8 km/h 29 km/h 43 % 0 mm
14:26 31.9 °C 17.4 °C 1007.7 hPa South 11.3 km/h 29 km/h 42 % 0 mm
14:31 31.8 °C 17.3 °C 1007.7 hPa SSE 14.5 km/h 29 km/h 42 % 0 mm
14:36 31.9 °C 17 °C 1007.7 hPa WNW 9.7 km/h 29 km/h 41 % 0 mm
14:41 32.1 °C 16 °C 1007.7 hPa SSW 14.5 km/h 29 km/h 38 % 0 mm
14:46 32.1 °C 17.2 °C 1007.7 hPa SW 11.3 km/h 27.4 km/h 41 % 0 mm
14:51 32.3 °C 16.6 °C 1007.3 hPa SSW 9.7 km/h 27.4 km/h 39 % 0 mm
14:56 32.4 °C 16.3 °C 1007.3 hPa SSW 16.1 km/h 30.6 km/h 38 % 0 mm
15:01 32.3 °C 17.4 °C 1007.3 hPa WSW 8 km/h 30.6 km/h 41 % 0 mm
15:06 32.6 °C 18 °C 1007.3 hPa South 9.7 km/h 30.6 km/h 42 % 0 mm
15:16 32.4 °C 16.7 °C 1007.3 hPa South 9.7 km/h 25.7 km/h 39 % 0 mm
15:21 32.6 °C 16.4 °C 1007.3 hPa ESE 16.1 km/h 25.7 km/h 38 % 0 mm
15:26 32.4 °C 16.3 °C 1007.3 hPa SE 20.9 km/h 29 km/h 38 % 0 mm
15:31 32.5 °C 16.8 °C 1007.3 hPa SSW 12.9 km/h 29 km/h 39 % 0 mm
15:36 32.6 °C 16.4 °C 1007.3 hPa South 12.9 km/h 29 km/h 38 % 0 mm
15:41 32.8 °C 18.2 °C 1007.3 hPa South 16.1 km/h 22.5 km/h 42 % 0 mm
15:46 32.7 °C 17.7 °C 1007.3 hPa SE 9.7 km/h 29 km/h 41 % 0 mm
15:51 32.7 °C 17.3 °C 1007 hPa SSW 14.5 km/h 29 km/h 40 % 0 mm
15:56 32.6 °C 18 °C 1007.3 hPa SW 12.9 km/h 30.6 km/h 42 % 0 mm
16:01 32.7 °C 18.5 °C 1007.3 hPa South 8 km/h 30.6 km/h 43 % 0 mm
16:06 32.6 °C 18 °C 1007 hPa SE 9.7 km/h 30.6 km/h 42 % 0 mm
16:09 32.6 °C 18 °C 1007 hPa SSW 8 km/h 30.6 km/h 42 % 0 mm
16:14 32.6 °C 18 °C 1007.3 hPa SW 12.9 km/h 22.5 km/h 42 % 0 mm
16:19 32.4 °C 17.8 °C 1007.3 hPa SE 8 km/h 25.7 km/h 42 % 0 mm
16:25 32.3 °C 17.7 °C 1007.3 hPa South 8 km/h 25.7 km/h 42 % 0 mm
16:30 32.3 °C 18.1 °C 1007.3 hPa SE 12.9 km/h 25.7 km/h 43 % 0 mm
16:35 32.2 °C 17.7 °C 1007.3 hPa SSW 9.7 km/h 25.7 km/h 42 % 0 mm
16:40 32.1 °C 17.6 °C 1007.3 hPa SSW 8 km/h 25.7 km/h 42 % 0 mm
16:45 32.1 °C 17.6 °C 1007.3 hPa South 16.1 km/h 25.7 km/h 42 % 0 mm
16:50 31.9 °C 17 °C 1007.3 hPa South 11.3 km/h 29 km/h 41 % 0 mm
16:55 31.8 °C 16.9 °C 1007.3 hPa SSW 6.4 km/h 29 km/h 41 % 0 mm
17:00 31.9 °C 17 °C 1007 hPa SSW 14.5 km/h 29 km/h 41 % 0 mm
17:05 31.9 °C 16.6 °C 1007 hPa South 17.7 km/h 25.7 km/h 40 % 0 mm
17:10 31.9 °C 16.6 °C 1007 hPa SE 12.9 km/h 29 km/h 40 % 0 mm
17:15 31.8 °C 16.5 °C 1007 hPa Calm   29 km/h 40 % 0 mm
17:20 31.8 °C 16.5 °C 1007 hPa South 14.5 km/h 29 km/h 40 % 0 mm
17:25 31.8 °C 16.5 °C 1007 hPa South 20.9 km/h 27.4 km/h 40 % 0 mm
17:30 31.7 °C 16.4 °C 1007 hPa SE 12.9 km/h 27.4 km/h 40 % 0 mm
17:35 31.7 °C 16.8 °C 1007 hPa SW 11.3 km/h 22.5 km/h 41 % 0 mm
17:40 31.6 °C 17.1 °C 1007 hPa SSW 14.5 km/h 25.7 km/h 42 % 0 mm
17:45 31.5 °C 16.3 °C 1007 hPa South 16.1 km/h 25.7 km/h 40 % 0 mm
17:50 31.3 °C 16.5 °C 1007 hPa SE 6.4 km/h 25.7 km/h 41 % 0 mm
17:55 31.4 °C 16.2 °C 1007 hPa SE 12.9 km/h 25.7 km/h 40 % 0 mm
18:00 31.2 °C 15.6 °C 1007 hPa SE 9.7 km/h 22.5 km/h 39 % 0 mm
18:05 31.1 °C 15.5 °C 1007 hPa South 9.7 km/h 20.9 km/h 39 % 0 mm
18:10 31.1 °C 15.9 °C 1007 hPa SSE 14.5 km/h 22.5 km/h 40 % 0 mm
18:15 31.1 °C 15.9 °C 1007 hPa WSW 6.4 km/h 22.5 km/h 40 % 0 mm
18:20 31.1 °C 14.3 °C 1007 hPa SSE 19.3 km/h 24.1 km/h 36 % 0 mm
18:25 30.8 °C 13.6 °C 1007 hPa SSW 8 km/h 30.6 km/h 35 % 0 mm
18:30 30.8 °C 13.6 °C 1007 hPa South 9.7 km/h 30.6 km/h 35 % 0 mm
18:35 30.8 °C 13.1 °C 1007 hPa SW 19.3 km/h 30.6 km/h 34 % 0 mm
18:40 30.7 °C 13.5 °C 1006.7 hPa South 12.9 km/h 24.1 km/h 35 % 0 mm
18:45 30.6 °C 12.9 °C 1006.7 hPa SE 9.7 km/h 27.4 km/h 34 % 0 mm
18:50 30.5 °C 13.3 °C 1006.7 hPa SSE 12.9 km/h 27.4 km/h 35 % 0 mm
18:55 30.4 °C 13.7 °C 1006.7 hPa SSW 14.5 km/h 27.4 km/h 36 % 0 mm
19:00 30.3 °C 14 °C 1006.7 hPa SE 8 km/h 25.7 km/h 37 % 0 mm
19:05 30.2 °C 14.3 °C 1006.7 hPa SSE 17.7 km/h 25.7 km/h 38 % 0 mm
19:10 30.1 °C 13.8 °C 1006.7 hPa East 17.7 km/h 25.7 km/h 37 % 0 mm
19:15 29.9 °C 13.6 °C 1006.7 hPa SE 12.9 km/h 27.4 km/h 37 % 0 mm
19:20 29.6 °C 13.8 °C 1007 hPa South 17.7 km/h 27.4 km/h 38 % 0 mm
19:25 29.4 °C 14 °C 1007 hPa SE 11.3 km/h 27.4 km/h 39 % 0 mm
19:30 29.3 °C 15.1 °C 1006.7 hPa East 12.9 km/h 24.1 km/h 42 % 0 mm
19:35 29.2 °C 15 °C 1006.7 hPa South 8 km/h 22.5 km/h 42 % 0 mm
19:40 29.1 °C 15.2 °C 1006.7 hPa SSE 6.4 km/h 22.5 km/h 43 % 0 mm
19:45 28.8 °C 15.7 °C 1006.7 hPa South 17.7 km/h 22.5 km/h 45 % 0 mm
19:47 28.8 °C 15.7 °C 1006.7 hPa South 12.9 km/h 22.5 km/h 45 % 0 mm
19:52 28.6 °C 15.8 °C 1006.7 hPa ESE 12.9 km/h 22.5 km/h 46 % 0 mm
19:57 28.4 °C 16 °C 1006.7 hPa South 11.3 km/h 22.5 km/h 47 % 0 mm
20:02 28.3 °C 16.2 °C 1006.7 hPa SE 17.7 km/h 20.9 km/h 48 % 0 mm
20:07 28.1 °C 16.7 °C 1007 hPa SSE 9.7 km/h 22.5 km/h 50 % 0 mm
20:12 28 °C 17.2 °C 1007 hPa SSE 6.4 km/h 22.5 km/h 52 % 0 mm
20:17 27.7 °C 17.5 °C 1007 hPa South 14.5 km/h 22.5 km/h 54 % 0 mm
20:22 27.6 °C 17.7 °C 1007 hPa ESE 11.3 km/h 19.3 km/h 55 % 0 mm
20:27 27.4 °C 18.1 °C 1007 hPa SE 12.9 km/h 22.5 km/h 57 % 0 mm
20:32 27.3 °C 18 °C 1007 hPa SSE 11.3 km/h 22.5 km/h 57 % 0 mm
20:37 27.1 °C 18.7 °C 1007 hPa South 12.9 km/h 22.5 km/h 60 % 0 mm
20:42 26.9 °C 18.7 °C 1007 hPa SE 8 km/h 22.5 km/h 61 % 0 mm
20:44 26.9 °C 19 °C 1007 hPa SE 16.1 km/h 22.5 km/h 62 % 0 mm
20:49 26.8 °C 19.2 °C 1007 hPa SE 8 km/h 24.1 km/h 63 % 0 mm
20:59 26.4 °C 19.5 °C 1007 hPa SE 12.9 km/h 25.7 km/h 66 % 0 mm
21:04 26.3 °C 19.7 °C 1007 hPa ESE 11.3 km/h 25.7 km/h 67 % 0 mm
21:09 26.2 °C 19.8 °C 1007 hPa SSE 12.9 km/h 25.7 km/h 68 % 0 mm
21:14 26.1 °C 19.7 °C 1007.3 hPa SSE 9.7 km/h 32.2 km/h 68 % 0 mm
21:19 25.9 °C 19.5 °C 1007.3 hPa SSE 4.8 km/h 32.2 km/h 68 % 0 mm
21:24 25.8 °C 19.7 °C 1007.3 hPa SSE 11.3 km/h 32.2 km/h 69 % 0 mm
21:29 25.7 °C 19.8 °C 1007.3 hPa ESE 11.3 km/h 19.3 km/h 70 % 0 mm
21:34 25.6 °C 19.7 °C 1007.3 hPa SE 8 km/h 20.9 km/h 70 % 0 mm
21:39 25.4 °C 19.5 °C 1007.3 hPa SSW 11.3 km/h 20.9 km/h 70 % 0 mm
21:44 25.3 °C 19.4 °C 1007.3 hPa SSE 3.2 km/h 20.9 km/h 70 % 0 mm
21:49 25.3 °C 19.4 °C 1007.7 hPa SE 6.4 km/h 19.3 km/h 70 % 0 mm
21:50 25.2 °C 19.3 °C 1007.7 hPa SE 11.3 km/h 19.3 km/h 70 % 0 mm
21:55 25.2 °C 19.3 °C 1007.7 hPa South 11.3 km/h 19.3 km/h 70 % 0 mm
22:00 25.1 °C 19.5 °C 1007.7 hPa ESE 16.1 km/h 19.3 km/h 71 % 0 mm
22:05 25.1 °C 19.5 °C 1007.7 hPa South 9.7 km/h 19.3 km/h 71 % 0 mm
22:10 25 °C 19.4 °C 1008 hPa ESE 9.7 km/h 22.5 km/h 71 % 0 mm
22:15 24.9 °C 19.5 °C 1008 hPa SW 19.3 km/h 22.5 km/h 72 % 0 mm
22:20 24.8 °C 19.4 °C 1008 hPa SSW 12.9 km/h 22.5 km/h 72 % 0 mm
22:25 24.8 °C 19.6 °C 1008.4 hPa SSW 6.4 km/h 22.5 km/h 73 % 0 mm
22:30 24.7 °C 19.8 °C 1008.4 hPa SSW 11.3 km/h 22.5 km/h 74 % 0 mm
22:35 24.7 °C 19.8 °C 1008.4 hPa SSE 8 km/h 22.5 km/h 74 % 0 mm
22:40 24.6 °C 19.9 °C 1008.4 hPa SE 6.4 km/h 22.5 km/h 75 % 0 mm
22:45 24.6 °C 19.9 °C 1008.4 hPa SSW 8 km/h 20.9 km/h 75 % 0 mm
22:55 24.5 °C 20 °C 1008.4 hPa SSE 8 km/h 19.3 km/h 76 % 0 mm
23:00 24.4 °C 20.1 °C 1008.4 hPa SSE 4.8 km/h 19.3 km/h 77 % 0 mm
23:05 24.4 °C 20.1 °C 1008.4 hPa SSE 8 km/h 17.7 km/h 77 % 0 mm
23:10 24.3 °C 20.2 °C 1008.7 hPa SSE 14.5 km/h 17.7 km/h 78 % 0 mm
23:15 24.3 °C 20.2 °C 1008.7 hPa SE 9.7 km/h 17.7 km/h 78 % 0 mm
23:20 24.2 °C 20.3 °C 1008.7 hPa SSE 6.4 km/h 17.7 km/h 79 % 0 mm
23:22 24.2 °C 20.3 °C 1008.7 hPa SE 8 km/h 17.7 km/h 79 % 0 mm
23:27 24.2 °C 20.3 °C 1008.7 hPa SSE 8 km/h 14.5 km/h 79 % 0 mm
23:32 24.1 °C 20.4 °C 1008.7 hPa South 11.3 km/h 14.5 km/h 80 % 0 mm
23:37 24.1 °C 20.4 °C 1008.7 hPa SE 8 km/h 16.1 km/h 80 % 0 mm
23:42 24.1 °C 20.4 °C 1008.7 hPa SSE 11.3 km/h 17.7 km/h 80 % 0 mm
23:47 24.1 °C 20.6 °C 1008.7 hPa SE 8 km/h 17.7 km/h 81 % 0 mm
23:52 24 °C 20.5 °C 1008.7 hPa SSW 12.9 km/h 17.7 km/h 81 % 0 mm
23:57 24 °C 20.5 °C 1008.7 hPa SSE 6.4 km/h 17.7 km/h 81 % 0 mm
Spring, Texas: Villages of Bridgestone
Compliments of Weather Underground - 2.75 mb

Script developed by  Jim McMurry - jmcmurry@mwt.net Adapted for the template by  Wim van der Kuil - Leuven-Template.eu

You find our weather info also at:

UK Metoffice

WeatherCloud

Weather Underground

Mid-South Weather Network

AWEKAS

Citizen Weather Observer Program (CWOP)

HAMweather, WeatherForYou, PWS Weather

Equipment we use:

Weather-station
Davis Vantage Vue

Weather-program
Meteohub

Weather-server
Debian 7.9 x86 (Guest)

Provider
DreamHost

Davis Vantage Vue

Meteohub

Debian 7.9 x86 (Guest)

DreamHost